Wind_Speed
5 4 3 2 1 1 2 3 4 6 8 9 11 12 13 13 13 14 14 14 13 12 12 11 11 10 10 10 10 10 9 8 7 7 7 6 6 6 5 5 4 3 3 3 2 2 1 2 2
6 5 4 3 3 2 2 2 3 5 7 8 10 11 12 12 13 13 13 13 13 12 11 10 10 10 11 11 10 10 9 8 7 7 7 7 7 6 6 5 5 3 1 1 2 1 1 1 1
8 7 6 5 5 4 3 3 3 4 6 8 10 11 12 12 13 13 13 13 12 12 11 11 11 11 10 10 10 10 9 8 7 7 7 6 7 7 6 6 5 3 1 0 1 1 1 1 1
9 8 8 7 7 6 4 4 4 4 5 8 9 10 11 12 12 12 12 12 12 11 11 10 11 10 10 10 9 9 9 8 8 7 7 7 7 7 6 5 4 3 2 2 1 0 1 1 2
10 10 10 9 8 8 6 5 4 3 5 7 9 10 11 11 11 12 12 12 11 10 10 10 10 10 10 10 10 9 9 9 8 8 7 7 7 7 7 6 4 3 3 2 2 1 1 2 2
11 11 10 10 9 9 8 7 6 5 5 6 8 10 10 10 11 11 11 11 11 10 9 9 10 10 10 10 9 9 8 8 8 7 7 7 7 7 7 6 4 3 3 2 3 2 0 1 2
13 12 10 10 10 10 8 7 6 5 5 5 7 9 9 9 11 10 10 11 11 10 9 9 9 9 9 9 9 8 8 8 7 7 7 7 6 6 6 6 4 3 3 2 2 2 1 1 2
13 12 11 10 10 11 9 8 7 6 6 6 7 8 8 9 10 10 10 10 10 10 10 9 8 8 8 8 8 8 8 8 7 7 7 6 6 5 5 5 5 4 3 2 1 1 2 1 1
13 13 12 11 11 12 11 10 9 8 8 7 7 7 8 9 9 9 10 10 10 10 9 9 8 7 7 7 7 7 8 8 7 6 6 6 5 5 5 5 5 4 3 2 1 2 2 2 2
14 14 13 13 12 13 13 12 11 9 8 8 7 8 8 8 9 9 10 10 10 10 9 8 8 7 7 6 6 6 7 8 7 7 6 5 5 4 4 4 4 4 3 2 2 2 3 3 3
15 15 15 14 14 14 14 13 12 10 9 9 9 8 9 9 9 10 10 10 9 9 8 8 8 7 6 6 5 5 6 7 7 6 6 5 5 4 5 4 4 4 4 3 3 3 3 4 4
16 17 16 15 14 14 15 14 13 12 11 10 9 8 9 9 9 10 10 10 9 8 8 8 7 7 6 5 4 4 5 6 7 6 5 5 4 5 5 5 5 4 4 4 4 4 4 4 4
16 17 17 16 15 15 15 14 14 13 12 10 9 8 9 9 9 10 10 10 8 8 8 7 6 6 6 4 4 4 5 6 5 5 5 5 5 5 5 5 5 5 5 4 4 4 4 4 4
17 17 17 16 15 16 16 14 14 13 13 11 10 9 9 9 9 9 9 9 8 7 8 7 6 6 5 4 4 4 4 5 5 5 5 5 5 5 5 5 5 5 5 4 4 4 4 4 4
17 17 17 16 16 16 15 14 14 14 14 12 11 10 9 9 9 8 8 9 7 7 7 7 6 6 5 5 4 4 4 5 5 5 5 5 5 5 5 5 5 5 5 4 4 4 4 5 5
18 17 17 17 17 17 16 14 14 14 14 13 11 10 9 9 9 8 8 9 8 7 8 7 6 6 6 6 5 5 5 5 5 5 5 5 5 6 6 5 5 5 4 4 4 5 5 5 5
19 18 17 17 17 17 16 15 14 14 13 12 12 10 9 10 9 9 9 9 9 9 8 8 7 7 6 6 6 7 5 5 5 6 5 5 6 6 6 6 6 5 5 4 5 5 6 6 6
20 19 18 17 17 17 16 16 15 15 14 13 13 12 10 10 10 10 10 10 10 10 9 9 8 8 8 7 8 7 6 5 5 5 5 6 6 6 7 7 7 6 6 5 6 6 7 6 6
21 21 19 18 18 18 17 16 15 15 15 14 13 12 11 11 11 11 10 10 10 10 10 10 9 9 8 8 8 7 6 6 6 6 6 6 6 6 7 7 7 7 7 7 7 7 7 7 7
21 20 19 18 19 19 17 16 15 15 14 14 13 12 11 11 11 11 11 11 11 11 11 11 11 10 9 9 8 8 7 7 7 7 7 7 7 7 7 8 8 8 8 8 8 8 8 7 7
22 21 20 20 20 20 19 18 17 16 15 15 14 13 13 12 12 12 12 12 12 12 12 12 11 11 10 10 9 8 8 8 8 8 8 8 8 8 8 8 8 8 9 9 9 9 8 8 8
21 21 21 21 21 21 20 19 18 18 17 16 16 15 14 14 13 12 12 13 13 12 12 12 12 11 11 10 10 10 9 9 9 9 9 8 9 9 9 9 9 9 9 9 9 9 9 9 9
21 22 23 22 22 22 22 21 19 19 18 18 17 17 16 15 15 14 14 14 14 13 14 13 12 12 11 11 11 11 10 10 10 10 10 9 9 9 9 10 10 10 10 10 10 10 10 10 10
22 22 23 24 24 24 22 22 20 19 18 18 18 17 17 17 16 16 15 14 14 15 15 14 13 12 11 11 11 11 10 10 11 11 10 10 10 10 11 10 11 11 11 10 10 10 11 11 11
22 22 23 24 24 24 23 24 22 19 19 18 18 18 19 17 16 16 15 14 14 14 14 14 14 13 12 11 11 11 11 11 11 11 11 11 11 11 11 11 12 11 11 11 11 12 12 12 12
22 22 23 25 24 24 25 26 23 21 19 19 20 20 19 18 17 17 16 15 15 15 15 15 14 14 12 12 12 12 12 13 13 12 12 12 12 12 12 12 13 13 12 12 12 12 12 12 12
23 23 22 24 25 25 26 26 25 23 21 21 21 20 19 19 18 18 17 16 16 16 16 15 14 14 14 14 14 14 14 13 14 14 13 14 14 13 13 13 13 13 13 13 13 13 13 13 13
24 23 23 25 26 27 27 26 26 24 23 22 21 21 20 19 19 19 18 17 17 17 18 18 17 17 17 16 16 16 16 15 15 15 15 15 15 14 14 14 14 14 14 14 13 13 13 13 13
25 25 25 26 27 28 28 26 24 24 23 23 22 21 21 20 19 19 19 18 18 18 18 19 19 19 18 17 17 18 17 17 16 16 16 16 15 15 16 15 15 15 15 14 14 14 14 13 13
24 25 26 27 27 28 28 27 25 25 24 24 24 23 22 22 21 20 19 20 20 20 19 19 20 20 20 19 19 19 19 18 17 17 17 17 16 16 17 16 16 16 16 15 15 16 15 15 15
Wind_Direction
246 248 254 255 278 315 352 14 26 33 33 27 23 23 20 17 15 14 13 15 16 15 16 18 20 23 25 27 28 28 29 32 34 32 29 22 19 17 11 8 358 344 324 327 315 269 238 252 267
245 249 252 251 269 288 305 345 8 23 27 26 24 21 17 15 12 11 12 14 14 13 15 18 21 23 25 25 26 28 26 26 27 26 24 19 18 17 11 5 2 354 328 300 329 287 238 248 260
242 246 245 247 265 276 288 318 349 9 20 14 15 16 13 11 8 7 9 11 9 10 14 17 20 21 23 24 25 26 26 24 23 21 22 22 19 16 13 10 14 28 38 332 322 6 203 228 259
242 242 244 247 258 270 283 306 321 336 360 4 5 9 7 6 5 4 5 5 4 4 8 12 18 21 23 25 25 23 24 22 18 16 16 17 13 10 11 12 18 21 18 31 45 143 163 251 266
242 241 244 246 258 267 276 287 300 318 347 358 1 2 360 2 1 359 0 1 1 1 3 8 15 20 22 24 25 23 23 21 16 12 11 12 12 11 12 15 14 13 11 10 20 35 225 246 258
243 243 244 246 254 264 268 278 284 307 325 343 350 350 353 356 355 355 356 358 358 360 2 6 13 20 21 19 19 18 17 14 14 12 10 10 11 10 10 13 10 10 23 30 32 18 333 268 263
243 243 244 249 253 260 267 271 268 288 305 320 336 341 346 350 350 349 351 354 356 359 2 4 10 17 18 18 16 16 13 11 10 9 9 9 12 11 11 14 12 8 17 27 26 357 326 313 272
242 244 244 247 249 256 265 271 271 278 296 307 320 329 337 342 345 345 348 352 353 355 0 4 8 12 14 14 14 14 10 9 6 5 7 7 9 10 8 8 9 10 19 17 9 341 320 295 261
238 240 243 246 247 251 258 267 275 278 288 301 316 319 328 337 337 341 344 346 347 349 353 359 2 3 4 6 9 12 10 9 5 3 4 3 3 5 3 3 2 6 17 20 336 320 321 317 297
236 238 240 243 246 251 258 265 275 278 286 295 307 312 321 328 332 334 339 340 341 343 346 349 353 353 356 1 4 7 9 7 4 359 357 354 353 358 353 351 350 354 355 342 325 312 308 308 297
235 237 240 243 247 255 261 266 272 278 281 291 300 308 312 319 327 329 331 334 336 338 342 345 349 349 349 354 359 6 10 8 8 6 3 354 351 348 344 339 333 332 330 320 315 306 309 304 291
238 238 241 246 251 257 261 264 270 277 282 285 291 303 305 313 320 324 324 329 331 334 339 343 343 347 350 352 357 6 11 7 8 12 8 3 357 350 342 338 331 324 318 310 304 304 304 304 294
239 239 242 245 250 256 261 265 273 276 280 283 285 292 300 309 316 321 322 327 327 331 334 338 338 341 344 345 352 357 8 5 6 8 4 0 359 358 355 349 340 324 316 311 305 309 313 320 315
239 241 244 246 249 255 263 268 268 269 271 278 281 286 291 301 310 314 319 325 328 329 330 335 336 336 338 339 343 353 356 355 358 357 356 356 353 353 356 353 342 329 320 316 311 309 303 309 313
240 242 244 245 246 252 261 264 267 267 266 270 275 279 284 294 305 309 314 321 324 326 327 331 326 322 318 316 321 331 337 340 348 348 348 346 344 345 344 341 338 330 323 313 304 303 301 301 302
239 240 242 244 245 248 254 260 263 265 265 266 271 275 280 291 302 307 311 317 321 321 321 322 321 316 313 310 306 313 324 328 332 334 337 337 334 335 334 328 331 332 326 314 304 298 292 290 291
240 238 239 240 245 246 250 255 259 263 263 265 266 269 274 283 295 304 308 312 314 313 315 315 312 311 311 310 305 308 313 318 321 325 330 327 326 327 326 322 322 321 319 309 302 295 294 288 292
238 237 236 239 243 246 249 253 255 258 259 262 262 262 265 273 284 294 300 305 308 306 307 306 301 299 300 306 304 301 305 307 310 312 317 320 320 321 319 318 314 309 306 301 294 293 292 289 288
240 240 238 238 244 249 252 254 255 256 259 260 261 261 263 269 277 286 293 297 299 301 301 298 293 290 292 295 299 293 295 296 295 301 308 313 314 315 314 314 310 303 297 295 292 289 289 284 283
240 241 241 240 245 250 252 254 255 256 260 263 262 263 264 267 269 279 286 291 294 296 293 292 293 291 287 287 290 289 289 290 289 292 297 299 306 314 312 306 304 305 302 300 296 292 288 282 283
240 242 242 244 248 253 256 255 255 257 259 261 265 265 266 269 271 277 280 282 285 290 287 285 287 287 285 285 283 284 287 289 292 292 295 293 296 299 305 301 298 301 302 301 296 293 288 285 285
240 243 243 245 247 251 256 258 255 258 259 259 262 264 264 267 270 272 275 276 277 280 281 280 284 285 284 282 279 283 285 284 284 285 288 289 291 295 296 297 297 293 295 299 293 290 288 285 286
242 243 245 247 248 250 254 258 257 258 259 260 263 263 262 265 267 268 271 275 274 273 274 273 276 278 282 281 276 276 283 283 283 283 288 291 289 290 293 294 293 293 294 295 294 290 287 284 284
243 246 248 248 250 252 255 259 258 255 258 260 260 259 261 262 265 268 270 272 271 271 273 269 269 272 278 282 273 271 277 282 282 283 286 285 288 290 294 292 290 292 292 291 290 288 286 286 284
244 247 250 251 251 254 256 258 259 258 259 261 262 264 262 261 263 265 268 269 271 272 272 266 265 266 270 275 272 271 274 276 278 280 283 284 284 287 290 290 288 288 288 288 288 288 284 285 286
247 249 252 255 255 255 255 256 259 259 261 262 263 265 265 263 264 264 265 266 267 268 267 265 263 261 266 271 271 271 270 272 275 274 276 277 277 281 285 284 285 286 284 284 287 287 284 285 285
248 251 255 257 257 259 257 257 257 260 263 264 265 265 266 263 263 263 264 263 264 265 266 264 266 262 266 269 269 272 270 271 272 271 274 274 271 273 278 281 279 281 282 283 285 286 284 283 283
250 252 255 257 260 262 262 262 260 261 263 264 265 265 266 265 263 262 260 260 262 265 267 266 267 266 266 265 267 268 267 267 269 270 270 271 267 269 275 277 279 278 279 281 283 284 284 283 281
250 251 254 257 259 262 265 264 264 263 262 262 263 264 266 267 267 265 261 260 261 263 266 265 264 264 265 263 264 265 265 266 266 268 267 268 268 269 273 274 276 277 278 280 281 282 282 282 280
254 255 256 258 260 262 264 266 265 263 261 261 261 261 263 266 266 264 261 258 259 261 263 265 265 265 265 265 264 267 268 267 265 264 266 267 269 270 271 271 272 273 275 277 279 281 282 280 279
Height
5896 5897 5897 5898 5899 5899 5897 5897 5897 5896 5896 5895 5894 5893 5893 5893 5892 5893 5889 5886 5885 5884 5883 5881 5880 5878 5877 5876 5875 5875 5874 5874 5873 5873 5873 5873 5872 5872 5872 5872 5871 5871 5871 5872 5872 5872 5873 5873 5874
5896 5897 5898 5899 5898 5898 5898 5897 5897 5897 5896 5895 5895 5894 5894 5893 5892 5890 5888 5887 5886 5885 5883 5882 5880 5879 5878 5876 5876 5875 5874 5874 5873 5873 5873 5872 5872 5872 5872 5871 5870 5870 5870 5871 5871 5872 5872 5873 5873
5895 5896 5898 5898 5898 5898 5898 5898 5897 5897 5897 5896 5895 5895 5894 5893 5892 5891 5889 5887 5886 5885 5884 5882 5881 5879 5878 5877 5876 5875 5875 5874 5874 5873 5873 5872 5872 5872 5871 5871 5870 5869 5870 5871 5871 5871 5871 5872 5873
5895 5896 5897 5898 5897 5898 5898 5897 5897 5897 5897 5896 5896 5895 5894 5894 5892 5891 5889 5888 5887 5885 5884 5882 5881 5880 5878 5877 5877 5876 5875 5874 5874 5873 5873 5872 5872 5872 5871 5871 5871 5870 5871 5871 5871 5871 5871 5871 5872
5894 5895 5896 5896 5897 5897 5897 5897 5897 5897 5897 5896 5896 5895 5894 5894 5893 5891 5890 5888 5887 5885 5884 5883 5881 5880 5879 5878 5877 5876 5875 5875 5874 5873 5873 5872 5872 5872 5871 5871 5871 5871 5871 5871 5871 5871 5871 5871 5871
5893 5894 5895 5895 5896 5896 5896 5896 5896 5897 5896 5896 5896 5895 5894 5894 5893 5891 5890 5889 5887 5885 5884 5883 5881 5880 5879 5878 5877 5877 5876 5875 5874 5874 5873 5873 5872 5872 5871 5871 5871 5870 5870 5871 5871 5871 5871 5871 5871
5892 5892 5893 5894 5894 5894 5895 5895 5896 5896 5896 5896 5895 5895 5894 5893 5893 5891 5890 5889 5887 5886 5884 5883 5881 5880 5879 5878 5878 5877 5876 5875 5875 5874 5873 5873 5872 5872 5871 5871 5871 5870 5870 5870 5870 5870 5871 5870 5871
5890 5891 5892 5892 5893 5893 5894 5894 5894 5894 5895 5894 5895 5894 5894 5893 5892 5891 5890 5889 5887 5886 5884 5883 5881 5880 5879 5879 5878 5877 5876 5875 5875 5874 5873 5873 5872 5872 5871 5871 5870 5870 5870 5870 5870 5870 5870 5870 5870
5888 5890 5890 5891 5891 5892 5892 5892 5893 5894 5894 5893 5893 5893 5893 5892 5891 5890 5889 5888 5887 5885 5884 5883 5881 5880 5879 5879 5878 5877 5876 5875 5874 5874 5873 5872 5872 5871 5871 5870 5870 5870 5870 5870 5869 5869 5869 5869 5870
5886 5887 5888 5889 5890 5890 5890 5891 5892 5893 5893 5892 5893 5892 5892 5891 5890 5890 5889 5888 5887 5885 5884 5883 5881 5880 5879 5878 5878 5877 5876 5875 5874 5873 5872 5872 5872 5871 5871 5870 5870 5869 5869 5869 5869 5869 5869 5869 5869
5884 5885 5886 5887 5887 5888 5889 5890 5890 5891 5891 5891 5892 5891 5891 5890 5890 5889 5888 5887 5886 5885 5883 5882 5881 5880 5879 5878 5877 5877 5876 5875 5874 5873 5872 5872 5871 5871 5870 5870 5869 5869 5869 5869 5869 5868 5868 5868 5868
5882 5883 5883 5885 5885 5887 5888 5888 5889 5889 5890 5890 5890 5890 5890 5889 5888 5888 5887 5886 5885 5884 5883 5882 5881 5880 5878 5878 5877 5876 5875 5875 5874 5873 5872 5871 5871 5871 5870 5869 5869 5868 5868 5868 5868 5868 5868 5867 5867
5879 5880 5881 5882 5883 5884 5885 5886 5887 5887 5888 5888 5888 5888 5888 5888 5887 5886 5886 5885 5884 5883 5882 5881 5880 5879 5878 5877 5877 5876 5875 5874 5873 5873 5872 5871 5870 5870 5869 5868 5868 5867 5867 5867 5867 5867 5867 5866 5866
5877 5878 5879 5880 5881 5882 5883 5884 5885 5885 5886 5886 5886 5887 5887 5886 5885 5885 5884 5883 5883 5882 5881 5881 5879 5878 5877 5877 5876 5876 5875 5874 5873 5872 5871 5871 5870 5869 5868 5868 5867 5866 5866 5865 5865 5865 5865 5865 5865
5874 5876 5877 5878 5879 5879 5881 5882 5882 5883 5883 5884 5884 5885 5885 5884 5884 5883 5883 5882 5881 5881 5880 5880 5879 5878 5877 5877 5876 5875 5874 5873 5872 5871 5870 5870 5869 5868 5868 5867 5866 5865 5865 5865 5865 5864 5864 5864 5864
5871 5873 5874 5875 5876 5877 5879 5880 5880 5880 5881 5881 5882 5883 5883 5882 5882 5882 5881 5880 5880 5879 5879 5878 5878 5877 5876 5875 5875 5874 5873 5872 5871 5870 5869 5869 5868 5868 5867 5866 5865 5865 5864 5864 5864 5864 5863 5863 5863
5868 5870 5871 5873 5873 5874 5875 5876 5877 5877 5878 5879 5880 5880 5880 5880 5880 5880 5879 5879 5878 5878 5877 5876 5876 5875 5875 5874 5873 5872 5872 5871 5870 5870 5869 5868 5867 5867 5866 5865 5864 5864 5863 5863 5863 5862 5862 5862 5862
5865 5866 5868 5870 5870 5871 5871 5873 5874 5874 5875 5876 5877 5877 5878 5878 5878 5878 5877 5877 5877 5876 5875 5875 5874 5873 5873 5872 5872 5871 5870 5869 5869 5868 5868 5867 5866 5865 5865 5864 5863 5863 5862 5862 5862 5862 5861 5861 5861
5861 5863 5865 5867 5867 5868 5868 5869 5870 5871 5872 5873 5873 5874 5875 5875 5875 5875 5875 5875 5874 5874 5873 5873 5872 5872 5871 5870 5869 5869 5868 5868 5867 5867 5866 5866 5865 5864 5864 5863 5862 5862 5861 5861 5860 5860 5860 5859 5859
5858 5860 5862 5863 5863 5864 5865 5866 5867 5868 5869 5869 5870 5871 5872 5872 5872 5873 5872 5872 5872 5871 5871 5870 5870 5869 5869 5868 5868 5867 5866 5866 5865 5865 5864 5864 5863 5862 5862 5861 5861 5860 5860 5860 5859 5858 5858 5858 5858
5854 5856 5858 5859 5860 5861 5862 5863 5864 5865 5865 5866 5867 5868 5868 5868 5869 5869 5869 5869 5869 5869 5868 5868 5867 5867 5866 5866 5865 5864 5864 5864 5863 5862 5862 5861 5861 5860 5860 5859 5859 5858 5858 5858 5857 5857 5856 5856 5856
5850 5853 5854 5855 5856 5857 5858 5859 5861 5861 5862 5862 5863 5864 5864 5865 5865 5865 5866 5866 5866 5866 5865 5865 5865 5864 5864 5863 5862 5861 5861 5861 5860 5860 5859 5858 5858 5858 5857 5857 5857 5857 5856 5856 5855 5855 5855 5855 5854
5846 5848 5849 5850 5851 5853 5853 5855 5857 5857 5857 5859 5859 5860 5861 5861 5861 5862 5862 5862 5861 5862 5862 5862 5862 5861 5861 5860 5859 5859 5858 5858 5858 5857 5857 5856 5856 5855 5855 5855 5855 5854 5854 5854 5853 5853 5853 5853 5853
5841 5843 5844 5845 5846 5848 5850 5850 5852 5853 5854 5855 5856 5856 5856 5857 5857 5857 5857 5857 5857 5857 5858 5858 5858 5858 5857 5857 5856 5856 5856 5855 5855 5854 5854 5854 5853 5853 5853 5853 5852 5852 5852 5851 5851 5851 5851 5851 5850
5837 5839 5840 5840 5841 5843 5845 5845 5847 5849 5850 5851 5851 5852 5852 5853 5853 5853 5853 5853 5853 5853 5853 5854 5854 5854 5854 5853 5853 5853 5852 5852 5852 5851 5851 5851 5851 5851 5850 5850 5850 5849 5849 5849 5849 5848 5848 5848 5848
5831 5833 5835 5836 5837 5839 5839 5839 5842 5844 5846 5846 5846 5847 5847 5848 5849 5849 5849 5849 5849 5849 5849 5850 5850 5849 5850 5850 5850 5849 5849 5848 5848 5848 5848 5848 5848 5848 5848 5847 5847 5847 5847 5846 5846 5846 5846 5845 5845
5826 5827 5829 5830 5831 5832 5833 5835 5837 5839 5840 5841 5841 5842 5843 5844 5844 5845 5845 5844 5845 5845 5845 5846 5846 5845 5846 5846 5846 5845 5845 5845 5844 5844 5844 5844 5844 5844 5844 5844 5844 5844 5844 5843 5843 5843 5842 5842 5842
5821 5822 5823 5824 5825 5825 5827 5829 5832 5833 5835 5836 5836 5836 5837 5838 5839 5839 5840 5840 5840 5841 5841 5841 5841 5841 5841 5842 5842 5842 5841 5841 5840 5839 5840 5840 5840 5840 5840 5841 5840 5840 5840 5840 5840 5840 5840 5839 5839
5815 5817 5817 5818 5819 5820 5821 5825 5826 5827 5829 5829 5830 5831 5832 5833 5833 5834 5835 5835 5835 5836 5836 5836 5836 5836 5837 5837 5837 5837 5837 5836 5836 5836 5836 5836 5836 5836 5836 5837 5837 5837 5837 5837 5837 5836 5836 5836 5835
5809 5810 5812 5813 5813 5814 5815 5820 5820 5821 5822 5823 5824 5825 5826 5826 5827 5828 5829 5829 5830 5830 5830 5830 5831 5831 5831 5832 5832 5832 5832 5832 5832 5832 5832 5832 5832 5832 5832 5832 5833 5833 5833 5833 5832 5832 5832 5831 5831